Flag for U.S.A. Weather past 2 weeks in Escondido, California, U.S.A.

Now
60 °F

Sunny.


Feels Like: 60 °F
Forecast: 42 / 74 °F
Wind: 10 mph from West

Location: Ramona Airport

Current Time: Mar 4, 2015 at 5:15:24 PM

Latest Report: Mar 4, 2015 at 4:53 PM


Visibility: 10 mi

Pressure: 30.07 "Hg

Humidity: 49%

Dew point: 41 °F

Location of EscondidoLocation

Historic Weather in Escondido — Graph

°F

Escondido temperature yesterday

Maximum temperature yesterday: 59 °F (at 12:53 PM)
Minimum temperature yesterday: 37 °F (at 1:53 AM)
Average temperature yesterday: 47 °F

Past Weeks' High & Low Weather Summary

 TemperatureHumidityPressure
High74 °F (Feb 18, 10:53 AM)100% (Feb 18, 3:53 AM)30.22 "Hg (Feb 18, 3:53 AM)
Low33 °F (Feb 24, 5:53 AM)17% (Feb 26, 11:53 AM)29.76 "Hg (Feb 27, 4:53 PM)
Average51 °F78%29.97 "Hg
* Reported Feb 17 3:53 PM — Mar 4 3:53 PM, Escondido, Weather by CustomWeather, © 2015

Note: Actual official high and low records may vary slightly from our data, if they occured in-between our weather recording intervals... More about our weather records

Advertising

Escondido weather history for previous 24 hours

 ConditionsComfort  
Time TempWeatherWind HumidityBarometerVisibility
3:53 PM
Wed, Mar 4
62 °FSunny.15 mph39%30.05 "Hg10 mi
2:53 PM66 °FPassing clouds.7 mph34%30.04 "Hg10 mi
1:53 PM66 °FSunny.9 mph31%30.04 "Hg10 mi
12:53 PM65 °FPassing clouds.9 mph29%30.05 "Hg10 mi
11:53 AM65 °FPassing clouds.7 mph29%30.06 "Hg10 mi
10:53 AM64 °FSunny.No wind26%30.05 "Hg10 mi
9:53 AM62 °FSunny.8 mph30%30.05 "Hg10 mi
8:53 AM59 °FSunny.8 mph41%30.04 "Hg10 mi
7:53 AM47 °FSunny.3 mph83%30.03 "Hg9 mi
6:53 AM38 °FFog.No wind93%30.01 "Hg6 mi
5:53 AM35 °FFog.No wind96%29.99 "Hg6 mi
4:53 AM35 °FFog.No wind92%29.97 "Hg5 mi
3:53 AM36 °FFog.No wind97%29.96 "Hg5 mi
2:57 AM35 °FFog.No wind96%29.96 "Hg3 mi
1:53 AM37 °FClear.No wind96%29.96 "Hg7 mi
12:53 AM36 °FFog.3 mph97%29.96 "Hg5 mi
11:53 PM
Tue, Mar 3
39 °FClear.No wind89%29.95 "Hg10 mi
10:53 PM41 °FFog.No wind93%29.95 "Hg4 mi
9:53 PM41 °FClear.5 mph96%29.95 "Hg8 mi
8:53 PM44 °FClear.No wind89%29.93 "Hg10 mi
7:53 PM46 °FClear.No wind83%29.92 "Hg10 mi
6:53 PM49 °FPassing clouds.No wind80%29.90 "Hg10 mi
5:53 PM49 °FClear.7 mph80%29.88 "Hg10 mi
Weather by CustomWeather, © 2015

See weather overviewHow to use our weather pages